PBO Station Position Time Series. Reference Frame : NAM14
Format Version,1.1.0
4-character ID,AC06
Station name,BradleyLakAK2005
Begin Date, 2005-09-11
End Date, 2019-10-07
Release Date, 2019-10-08
Reference position, 59.7636372161 North Latitude, -150.8905588834 East Longitude, 631.46707 meters elevation,
Date, North (mm), East (mm), Vertical (mm), North Std. Deviation (mm), East Std. Deviation (mm),              Vertical Std. Deviation (mm), Quality,
2005-09-11,0.00, 0.00, 0.00, 2.75, 1.88, 9.38, repro,
2005-09-12,1.38, 0.27, -0.60, 2.47, 1.68, 8.30, repro,
2005-09-13,3.10, 1.32, 3.13, 2.54, 1.70, 8.19, repro,
2005-09-14,1.92, 0.63, 8.69, 2.48, 1.65, 8.04, repro,
2005-09-15,4.49, -1.11, 8.40, 2.49, 1.69, 8.11, repro,
2005-09-16,4.66, 0.86, 18.54, 2.49, 1.66, 8.11, repro,
2005-09-17,0.97, 2.47, 3.44, 2.34, 1.59, 7.53, repro,
2005-09-18,-0.93, 0.89, 3.57, 2.37, 1.59, 7.54, repro,
2005-09-19,1.15, 0.49, 7.95, 2.45, 1.64, 7.72, repro,
2005-09-20,0.81, 0.19, -0.34, 2.36, 1.59, 7.51, repro,
2005-09-21,0.37, 0.69, -8.47, 2.42, 1.63, 7.75, repro,
2005-09-22,1.41, 1.39, -7.06, 2.42, 1.62, 7.62, repro,
2005-09-23,0.26, 0.39, -0.21, 2.37, 1.60, 7.60, repro,
2005-09-24,-0.95, 1.91, 0.62, 2.46, 1.63, 7.75, repro,
2005-09-25,1.30, 0.44, 3.96, 2.45, 1.64, 7.72, repro,
2005-09-26,2.22, 0.47, 0.24, 2.42, 1.63, 7.66, repro,
2005-09-27,-2.22, 6.95, 7.99, 2.44, 1.61, 7.71, repro,
2005-09-28,0.73, 3.42, 9.56, 2.45, 1.67, 7.76, repro,
2005-09-29,-0.64, 1.67, 4.60, 2.43, 1.66, 7.75, repro,
2005-09-30,1.18, 1.27, 8.34, 2.38, 1.59, 7.55, repro,
2005-10-01,1.14, 1.81, 7.35, 2.43, 1.63, 7.66, repro,
2005-10-02,1.10, 2.39, -6.13, 2.40, 1.63, 7.65, repro,
2005-10-03,0.73, 2.77, -6.60, 2.43, 1.63, 7.64, repro,
2005-10-04,0.24, 1.10, -3.60, 2.40, 1.64, 7.71, repro,
2005-10-05,0.56, 3.03, 1.48, 2.36, 1.59, 7.57, repro,
2005-10-06,-0.04, 1.30, 2.43, 2.37, 1.60, 7.58, repro,
2005-10-07,0.28, 1.84, 2.81, 2.34, 1.59, 7.52, repro,
2005-10-08,0.81, 0.93, 9.85, 2.35, 1.58, 7.52, repro,
2005-10-09,-1.52, 1.39, 3.67, 2.36, 1.60, 7.55, repro,
2005-10-10,-2.04, 1.07, 2.31, 2.34, 1.58, 7.52, repro,
2005-10-11,0.53, 1.46, 6.01, 2.41, 1.61, 7.65, repro,
2005-10-12,0.36, 1.54, 7.64, 2.41, 1.61, 7.62, repro,
2005-10-13,0.85, 0.40, 4.92, 2.39, 1.61, 7.70, repro,
2005-10-14,1.82, -0.15, 3.08, 2.35, 1.59, 7.56, repro,
2005-10-15,1.12, 0.21, -2.25, 2.35, 1.59, 7.50, repro,
2005-10-16,1.20, 1.09, 2.73, 2.35, 1.59, 7.51, repro,
2005-10-17,2.63, 0.85, 8.42, 2.34, 1.60, 7.54, repro,
2005-10-18,-1.64, 1.99, 11.56, 2.40, 1.60, 7.55, repro,
2005-10-19,-0.15, 0.77, 3.54, 2.47, 1.65, 7.80, repro,
2005-10-20,1.56, 5.69, 3.18, 2.43, 1.67, 7.80, repro,
2005-10-21,-0.51, 0.54, 2.76, 2.35, 1.58, 7.55, repro,
2005-10-22,0.25, 4.23, 7.71, 2.35, 1.58, 7.52, repro,
2005-10-23,-0.40, 4.35, 8.72, 2.34, 1.58, 7.49, repro,
2005-10-24,0.78, 0.69, -2.14, 2.34, 1.58, 7.47, repro,
2005-10-25,0.56, 0.39, 2.43, 2.39, 1.60, 7.55, repro,
2005-10-26,-0.92, 0.47, 0.79, 2.41, 1.61, 7.67, repro,
2005-10-27,0.06, 0.27, -5.98, 2.43, 1.61, 7.73, repro,
2005-10-28,0.64, 1.17, 1.67, 2.36, 1.59, 7.57, repro,
2005-10-29,0.98, 1.16, 2.47, 2.42, 1.61, 7.66, repro,
2005-10-30,2.82, 0.28, -3.47, 2.41, 1.62, 7.73, repro,
2005-10-31,0.20, 1.88, -3.43, 2.51, 1.68, 7.96, repro,
2005-11-01,0.14, 0.56, -3.42, 2.51, 1.69, 7.94, repro,
2005-11-02,0.08, 0.63, 0.22, 2.52, 1.68, 7.92, repro,
2005-11-03,-0.24, 0.60, -1.92, 2.48, 1.66, 7.85, repro,
2005-11-04,-2.11, -0.89, -2.00, 2.51, 1.68, 7.90, repro,
2005-11-05,0.95, -0.50, -5.11, 2.50, 1.67, 7.80, repro,
2005-11-06,0.70, 0.02, -1.97, 2.53, 1.68, 7.88, repro,
2005-11-07,-0.08, -0.60, -2.81, 2.47, 1.66, 7.77, repro,
2005-11-08,-1.70, 0.13, -1.39, 2.52, 1.69, 7.92, repro,
2005-11-09,-2.14, 0.05, 5.89, 2.51, 1.69, 7.93, repro,
2005-11-10,-1.05, -0.33, 3.86, 2.66, 1.81, 8.53, repro,
2005-11-11,1.05, -0.74, 6.21, 2.63, 1.80, 8.25, repro,
2005-11-12,2.79, 0.44, -1.32, 2.41, 1.62, 7.64, repro,
2005-11-13,1.46, -0.60, -5.39, 2.61, 1.76, 8.11, repro,
2005-11-14,0.67, 0.60, -14.94, 2.52, 1.69, 7.96, repro,
2005-11-15,-1.82, 0.02, -10.64, 2.34, 1.60, 7.53, repro,
2005-11-16,1.05, -1.07, -2.34, 2.36, 1.61, 7.60, repro,
2005-11-17,0.80, 0.66, -0.72, 2.37, 1.61, 7.62, repro,
2005-11-18,0.04, 2.70, -1.90, 2.39, 1.63, 7.81, repro,
2005-11-19,-0.45, 2.57, 1.14, 2.38, 1.61, 7.61, repro,
2005-11-20,0.98, 2.99, -4.55, 2.40, 1.63, 7.69, repro,
2005-11-21,-2.42, 2.01, -3.31, 2.44, 1.68, 8.11, repro,
2005-11-22,0.01, 1.41, -1.91, 2.40, 1.63, 7.64, repro,
2005-11-23,1.13, 1.55, 4.14, 2.36, 1.60, 7.57, repro,
2005-11-24,0.09, 0.90, 2.50, 2.44, 1.64, 7.78, repro,
2005-11-25,-1.27, 1.24, 4.91, 2.37, 1.61, 7.65, repro,
2005-11-26,-1.15, -0.19, -2.35, 2.54, 1.73, 8.03, repro,
2005-11-27,0.24, -1.00, -9.23, 2.47, 1.66, 7.87, repro,
2005-11-28,1.14, 0.04, -14.28, 2.46, 1.66, 7.78, repro,
2005-11-29,0.98, 1.06, -11.70, 2.38, 1.60, 7.56, repro,
2005-11-30,2.58, -0.27, -11.69, 2.42, 1.64, 7.71, repro,
2005-12-01,1.34, 0.89, -11.38, 2.43, 1.65, 7.88, repro,
2005-12-02,1.40, 1.45, -3.93, 2.37, 1.61, 7.74, repro,
2005-12-03,0.56, 0.67, -8.83, 2.33, 1.58, 7.43, repro,
2005-12-04,2.45, 0.39, -5.20, 2.36, 1.58, 7.49, repro,
2005-12-05,2.10, -0.11, -7.33, 2.42, 1.64, 7.72, repro,
2005-12-06,5.15, 2.95, -2.22, 2.43, 1.67, 7.81, repro,
2005-12-07,-1.84, 5.42, 8.11, 2.46, 1.71, 7.84, repro,
2005-12-08,-3.24, 2.77, 12.00, 2.40, 1.63, 7.64, repro,
2005-12-09,-1.43, 4.78, -0.27, 2.47, 1.62, 7.68, repro,
2005-12-10,-1.37, 2.26, 1.16, 2.40, 1.63, 7.62, repro,
2005-12-11,0.76, 2.69, -0.73, 2.41, 1.63, 7.74, repro,
2005-12-12,-0.34, 3.18, -2.71, 2.34, 1.60, 7.59, repro,
2005-12-13,1.07, 2.07, -9.09, 2.32, 1.58, 7.50, repro,
2005-12-14,-6.33, 6.73, -2.08, 2.35, 1.59, 7.54, repro,
2005-12-15,-0.60, 10.53, -17.26, 2.41, 1.62, 7.85, repro,
2005-12-16,-7.77, 3.80, -20.97, 2.39, 1.61, 7.70, repro,
2005-12-17,1.67, 3.38, -4.60, 2.38, 1.63, 7.63, repro,
2005-12-18,2.99, 5.15, -4.59, 2.36, 1.60, 7.65, repro,
2005-12-19,0.53, 1.20, 0.01, 2.46, 1.66, 7.80, repro,
2005-12-20,-1.66, 0.32, 4.05, 2.53, 1.70, 7.94, repro,
2005-12-21,-0.33, 0.18, 8.28, 2.52, 1.69, 7.97, repro,
2005-12-22,0.96, 1.85, 3.75, 2.79, 1.95, 9.20, repro,
2005-12-23,-0.54, 3.42, 0.38, 2.56, 1.74, 8.10, repro,
2005-12-24,1.12, 2.15, -0.04, 2.60, 1.83, 8.80, repro,
2005-12-25,0.66, 4.30, 4.48, 2.47, 1.70, 8.16, repro,
2005-12-26,-3.23, 7.57, 0.79, 2.43, 1.64, 7.72, repro,
2005-12-27,-3.95, 2.15, 3.70, 2.57, 1.79, 8.76, repro,
2005-12-28,-0.20, 2.08, -7.63, 2.45, 1.67, 7.84, repro,
2005-12-29,-1.24, 6.33, -5.47, 2.61, 1.79, 8.46, repro,
2005-12-30,-1.44, 7.01, 11.11, 2.47, 1.74, 8.46, repro,
2005-12-31,-4.28, 3.42, 6.01, 2.55, 1.78, 8.65, repro,
2006-01-01,-1.11, 4.49, -3.51, 2.56, 1.78, 8.68, repro,
2006-01-02,-0.66, 6.46, -0.54, 2.39, 1.62, 7.57, repro,
2006-01-03,3.08, 1.97, -10.79, 2.49, 1.74, 8.43, repro,
2006-01-04,-0.44, 2.06, -13.07, 2.66, 1.87, 9.28, repro,
2006-01-05,-0.29, 2.56, -8.74, 2.57, 1.84, 8.66, repro,
2006-01-06,-1.03, 2.59, -5.77, 2.65, 1.84, 8.89, repro,
2006-01-07,-0.65, 3.45, -7.35, 2.54, 1.73, 8.03, repro,
2006-01-08,0.79, 3.33, 1.04, 2.58, 1.80, 8.51, repro,
2006-01-09,-0.63, 2.18, -1.73, 2.57, 1.77, 8.53, repro,
2006-01-10,0.78, 1.54, -0.20, 2.61, 1.82, 8.97, repro,
2006-01-11,0.67, 1.87, -8.93, 4.52, 3.13, 15.82, repro,
2006-02-22,1.31, 6.29, -20.44, 5.03, 3.66, 16.02, repro,
2006-02-23,3.73, 2.56, -14.09, 2.32, 1.59, 7.53, repro,
2006-02-24,1.74, 1.98, -18.40, 2.35, 1.59, 7.64, repro,
2006-02-25,2.49, 1.82, -21.03, 2.31, 1.58, 7.36, repro,
2006-02-26,1.99, 2.62, -12.04, 2.35, 1.59, 7.61, repro,
2006-02-27,1.24, 3.58, -4.93, 2.35, 1.59, 7.53, repro,
2006-02-28,2.78, 3.24, -3.25, 2.42, 1.63, 7.85, repro,
2006-03-01,2.32, 2.25, -7.06, 2.48, 1.64, 7.79, repro,
2006-03-02,3.35, 1.14, -10.09, 2.34, 1.59, 7.48, repro,
2006-03-03,2.50, 3.43, -10.84, 2.34, 1.61, 7.54, repro,
2006-03-04,1.68, 2.74, -15.34, 2.33, 1.57, 7.38, repro,
2006-03-05,3.43, 1.79, -8.32, 2.34, 1.59, 7.54, repro,
2006-03-06,0.90, 3.31, -7.89, 2.34, 1.57, 7.38, repro,
2006-03-07,0.78, 2.24, -4.68, 2.35, 1.60, 7.55, repro,
2006-03-08,0.10, 3.02, -2.73, 2.33, 1.58, 7.35, repro,
2006-03-09,2.15, 1.46, -3.42, 2.33, 1.57, 7.31, repro,
2006-03-10,-0.21, 3.16, -12.77, 2.34, 1.58, 7.41, repro,
2006-03-11,2.49, 2.28, -14.36, 2.39, 1.61, 7.60, repro,
2006-03-12,2.05, 3.65, -14.69, 2.44, 1.66, 7.67, repro,
2006-03-13,1.61, 3.03, -18.02, 2.46, 1.68, 7.77, repro,
2006-03-14,3.88, 3.04, -13.98, 2.38, 1.61, 7.56, repro,
2006-03-15,1.34, 2.98, -16.61, 2.38, 1.60, 7.55, repro,
2006-03-16,1.85, 3.48, -13.84, 2.48, 1.65, 7.74, repro,
2006-03-17,1.71, 3.21, -18.35, 2.47, 1.65, 7.78, repro,
2006-03-18,2.23, 3.78, -15.54, 2.41, 1.62, 7.62, repro,
2006-03-19,1.30, 4.23, -12.62, 2.38, 1.60, 7.53, repro,
2006-03-20,-0.68, 4.13, -13.53, 2.37, 1.59, 7.47, repro,
2006-03-21,0.01, 3.83, -15.35, 2.38, 1.60, 7.55, repro,
2006-03-22,1.58, 4.75, -24.18, 2.44, 1.64, 7.72, repro,
2006-03-23,2.77, 3.68, -19.37, 2.45, 1.67, 7.76, repro,
2006-03-24,2.61, 4.30, -22.88, 2.41, 1.66, 7.64, repro,
2006-03-25,2.98, 3.95, -20.34, 2.42, 1.65, 7.62, repro,
2006-03-26,1.39, 4.57, -19.91, 2.43, 1.64, 7.65, repro,
2006-03-27,1.95, 4.28, -21.08, 2.44, 1.65, 7.70, repro,
2006-03-28,1.39, 4.04, -14.21, 2.36, 1.59, 7.46, repro,
2006-03-29,0.33, 4.11, -14.86, 2.32, 1.58, 7.39, repro,
2006-03-30,2.52, 3.74, -9.54, 2.36, 1.60, 7.58, repro,
2006-03-31,7.48, 5.44, -15.67, 2.42, 1.61, 7.49, repro,
2006-04-16,2.38, 4.47, -17.72, 2.69, 1.86, 9.14, repro,
2006-04-17,-1.57, 6.80, -16.25, 2.32, 1.57, 7.38, repro,
2006-04-18,0.02, 3.97, -15.62, 2.32, 1.58, 7.39, repro,
2006-04-19,0.55, 4.48, -24.62, 2.43, 1.65, 7.73, repro,
2006-04-20,2.50, 3.51, -18.96, 2.38, 1.63, 7.62, repro,
2006-04-21,3.99, 6.18, -24.25, 2.32, 1.58, 7.50, repro,
2006-04-22,3.02, 3.35, -23.85, 2.32, 1.57, 7.42, repro,
2006-04-23,0.35, 2.93, -13.82, 2.56, 1.74, 8.04, repro,
2006-04-28,3.11, 2.24, -18.22, 3.05, 2.09, 9.88, repro,
2006-04-29,0.82, 3.21, -19.76, 2.37, 1.62, 7.56, repro,
2006-04-30,2.75, 3.90, -18.58, 2.29, 1.56, 7.35, repro,
2006-05-01,4.19, 2.52, -29.07, 2.37, 1.62, 7.63, repro,
2006-05-17,2.02, 3.97, -16.21, 2.65, 1.80, 8.77, repro,
2006-05-18,3.07, 4.24, -13.91, 2.32, 1.61, 7.50, repro,
2006-05-19,2.65, 3.81, -19.73, 2.37, 1.65, 7.65, repro,
2006-05-20,2.07, 3.89, -8.99, 2.93, 1.94, 8.98, repro,
2006-05-23,3.25, 4.30, -11.22, 2.53, 1.79, 8.47, repro,
2006-05-24,4.60, 3.75, -13.52, 2.34, 1.63, 7.59, repro,
2006-05-25,0.71, 4.02, -17.42, 2.40, 1.68, 8.04, repro,
2006-05-26,2.79, 4.09, -10.87, 2.39, 1.68, 7.99, repro,
2006-05-27,3.06, 3.61, -8.62, 2.34, 1.64, 7.55, repro,
2006-05-28,2.29, 4.85, -9.49, 2.35, 1.63, 7.59, repro,
2006-05-29,3.62, 3.72, -13.41, 2.35, 1.62, 7.59, repro,
2006-05-30,1.92, 3.94, -15.43, 2.36, 1.63, 7.57, repro,
2006-05-31,2.98, 4.38, -12.25, 2.47, 1.69, 7.87, repro,
2006-06-01,3.39, 4.61, -10.62, 2.44, 1.68, 7.73, repro,
2006-06-02,3.35, 3.48, -16.16, 2.46, 1.69, 7.87, repro,
2006-06-03,4.33, 4.22, -12.02, 2.45, 1.68, 7.88, repro,
2006-06-04,3.90, 4.62, -5.61, 2.39, 1.66, 7.83, repro,
2006-06-05,1.72, 4.98, -11.55, 2.42, 1.66, 7.77, repro,
2006-06-06,3.75, 4.87, -4.92, 2.40, 1.67, 7.77, repro,
2006-06-07,5.02, 4.85, -13.45, 2.41, 1.66, 7.80, repro,
2006-06-08,6.32, 1.96, -7.02, 2.38, 1.64, 7.70, repro,
2006-06-09,1.19, 18.01, -23.05, 2.40, 1.64, 7.81, repro,
2006-06-10,9.29, 6.31, -27.00, 2.36, 1.64, 7.66, repro,
2006-06-11,2.11, 2.99, -8.28, 2.36, 1.63, 7.57, repro,
2006-06-12,4.11, 3.14, -3.54, 2.36, 1.64, 7.60, repro,
2006-06-13,1.88, 4.10, -12.23, 2.46, 1.67, 7.94, repro,
2006-06-14,2.82, 3.53, -8.85, 2.37, 1.63, 7.64, repro,
2006-06-15,1.73, 4.64, -7.73, 2.34, 1.63, 7.62, repro,
2006-06-16,3.23, 4.56, -5.08, 2.38, 1.63, 7.61, repro,
2006-06-17,4.06, 5.28, -3.04, 2.35, 1.63, 7.56, repro,
2006-06-18,3.74, 6.66, -16.28, 2.80, 1.90, 9.09, repro,
2006-06-25,3.91, 3.96, -9.62, 2.51, 1.75, 8.13, repro,
2006-06-26,3.70, 4.72, -14.63, 2.41, 1.66, 7.71, repro,
2006-06-27,3.18, 4.86, -10.38, 2.70, 1.82, 8.69, repro,
2006-06-28,4.21, 3.75, -15.85, 2.82, 2.00, 8.86, repro,
2006-06-29,4.47, 4.32, -9.95, 2.37, 1.60, 7.57, repro,
2006-06-30,7.06, 3.80, -4.95, 4.12, 2.67, 13.53, repro,
2006-07-03,4.17, 4.20, -17.21, 2.64, 1.85, 8.79, repro,
2006-07-04,3.61, 3.65, -19.85, 3.07, 2.12, 10.44, repro,
2006-07-14,2.44, 8.65, -11.73, 6.65, 4.82, 26.50, repro,
2006-07-15,4.92, 1.53, -9.98, 3.37, 2.40, 11.64, repro,
2006-09-10,-39.54, -2.06, 24.95, 87.17, 106.70, 207.29, repro,
2006-09-11,4.19, 1.67, 4.43, 2.52, 1.71, 8.13, repro,
2006-09-12,2.41, 1.80, -4.46, 2.41, 1.61, 7.67, repro,
2006-09-13,3.51, 1.75, -8.02, 2.39, 1.60, 7.65, repro,
2006-09-14,4.09, 5.92, 5.16, 2.58, 1.73, 8.21, repro,
2006-09-15,9.03, 11.94, -12.14, 2.48, 1.68, 8.13, repro,
2006-09-16,3.46, 2.09, -4.86, 2.35, 1.59, 7.61, repro,
2006-09-17,2.79, 1.50, 0.90, 2.35, 1.57, 7.55, repro,
2006-09-18,3.34, 1.30, 6.98, 2.34, 1.58, 7.56, repro,
2006-09-19,3.57, 7.72, 3.91, 2.40, 1.61, 7.78, repro,
2006-09-20,2.62, 2.08, 4.10, 2.34, 1.57, 7.51, repro,
2006-09-21,2.05, 3.45, -3.58, 2.44, 1.64, 7.97, repro,
2006-09-22,-4.16, 5.40, 3.45, 2.47, 1.65, 7.80, repro,
2006-09-23,2.28, 1.84, 1.91, 2.40, 1.62, 7.70, repro,
2006-09-24,3.12, 2.41, -3.71, 2.44, 1.64, 7.81, repro,
2006-09-25,3.43, 1.18, -2.01, 2.35, 1.58, 7.54, repro,
2006-09-26,4.65, 1.84, 2.70, 2.36, 1.58, 7.57, repro,
2006-09-27,3.61, 1.82, 4.81, 2.34, 1.58, 7.56, repro,
2006-09-28,3.83, 1.56, 5.53, 2.36, 1.58, 7.60, repro,
2006-09-29,1.10, 2.31, 4.45, 2.36, 1.58, 7.58, repro,
2006-09-30,3.25, 1.74, 3.44, 2.42, 1.61, 7.70, repro,
2006-10-01,5.02, 2.16, 1.52, 2.36, 1.58, 7.55, repro,
2006-10-02,3.32, 5.21, -9.05, 2.42, 1.61, 7.73, repro,
2006-10-03,2.71, -1.36, 4.59, 2.46, 1.62, 7.82, repro,
2006-10-04,1.48, 0.40, 4.90, 2.38, 1.59, 7.64, repro,
2006-10-05,2.60, 1.84, 4.89, 2.38, 1.57, 7.58, repro,
2006-10-06,3.44, 2.26, 1.89, 2.36, 1.58, 7.55, repro,
2006-10-07,4.79, 2.04, 2.38, 2.42, 1.62, 7.70, repro,
2006-10-08,6.88, 11.11, -6.90, 2.44, 1.62, 7.73, repro,
2006-10-09,-6.04, 13.07, -31.97, 2.49, 1.69, 8.16, repro,
2006-10-10,-3.17, 7.90, -6.89, 2.42, 1.60, 7.73, repro,
2006-10-11,4.31, 0.86, 8.16, 2.41, 1.60, 7.63, repro,
2006-10-12,3.52, 1.14, -4.34, 2.37, 1.59, 7.57, repro,
2006-10-13,2.63, 1.68, -3.93, 2.33, 1.56, 7.44, repro,
2006-10-14,2.57, 0.94, -4.97, 2.35, 1.55, 7.49, repro,
2006-10-15,0.87, 1.13, 0.01, 2.42, 1.59, 7.65, repro,
2006-10-16,5.14, 0.25, 9.93, 2.34, 1.54, 7.44, repro,
2006-10-17,2.69, 1.03, 3.22, 2.44, 1.61, 7.75, repro,
2006-10-18,5.62, 3.90, -1.06, 2.33, 1.56, 7.49, repro,
2006-10-19,2.20, 0.19, -0.07, 2.49, 1.67, 7.87, repro,
2006-10-20,4.93, 1.32, 1.44, 2.60, 1.71, 8.14, repro,
2006-10-21,2.43, 1.33, -6.75, 2.50, 1.67, 7.88, repro,
2006-10-22,2.68, 1.12, 4.99, 2.44, 1.62, 7.74, repro,
2006-10-23,0.65, 1.13, 2.28, 2.37, 1.59, 7.64, repro,
2006-10-24,3.79, 3.14, 8.19, 2.52, 1.70, 8.04, repro,
2006-10-25,1.08, 1.92, 8.47, 2.64, 1.78, 8.31, repro,
2006-10-26,1.73, 1.03, 5.01, 2.43, 1.63, 7.75, repro,
2006-10-27,2.05, 1.17, -3.18, 2.34, 1.56, 7.51, repro,
2006-10-28,3.76, 1.77, -7.04, 2.54, 1.71, 8.04, repro,
2006-10-29,3.67, 2.24, -5.57, 2.38, 1.60, 7.68, repro,
2006-10-30,3.19, 1.80, -7.43, 2.34, 1.56, 7.53, repro,
2006-10-31,3.64, 1.46, -5.06, 2.44, 1.65, 7.78, repro,
2006-11-01,3.41, 1.06, -4.49, 2.49, 1.67, 7.94, repro,
2006-11-02,3.36, 1.36, -1.67, 2.46, 1.62, 7.88, repro,
2006-11-03,3.78, 0.55, -4.66, 2.37, 1.59, 7.67, repro,
2006-11-04,3.05, 1.09, -5.01, 2.38, 1.61, 7.83, repro,
2006-11-05,3.85, 0.56, -4.93, 2.36, 1.59, 7.65, repro,
2006-11-06,2.88, 1.46, -2.71, 2.38, 1.59, 7.67, repro,
2006-11-07,2.70, 0.59, -1.56, 2.37, 1.60, 7.92, repro,
2006-11-08,3.67, 1.60, 1.80, 2.50, 1.63, 8.11, repro,
2006-11-09,3.00, 0.66, 0.10, 2.44, 1.61, 7.94, repro,
2006-11-10,0.82, 0.20, -0.46, 2.38, 1.59, 7.90, repro,
2006-11-11,3.43, 1.15, 2.33, 2.43, 1.61, 7.90, repro,
2006-11-12,2.68, 1.31, -1.80, 2.44, 1.62, 7.99, repro,
2006-11-13,4.71, 0.24, -1.12, 2.42, 1.60, 7.95, repro,
2006-11-14,2.66, 1.03, 0.36, 2.35, 1.54, 7.54, repro,
2006-11-15,0.37, 0.55, 7.38, 2.32, 1.55, 7.51, repro,
2006-11-16,4.01, 0.91, 1.55, 2.31, 1.54, 7.45, repro,
2006-11-17,2.36, 0.95, 2.51, 2.31, 1.54, 7.46, repro,
2006-11-18,3.23, 1.41, -0.03, 2.33, 1.55, 7.57, repro,
2006-11-19,2.13, 1.34, -3.20, 2.33, 1.54, 7.51, repro,
2006-11-20,2.46, 0.27, 0.33, 2.34, 1.55, 7.58, repro,
2006-11-21,3.24, 1.01, -2.90, 2.30, 1.54, 7.43, repro,
2006-11-22,2.57, 0.53, -5.70, 2.30, 1.54, 7.42, repro,
2006-11-23,2.53, 0.90, -7.39, 2.39, 1.59, 7.70, repro,
2006-11-24,1.73, 1.40, -10.02, 2.44, 1.63, 7.82, repro,
2006-11-25,2.07, 1.41, -6.86, 2.37, 1.58, 7.65, repro,
2006-11-26,3.54, 1.34, -8.33, 2.38, 1.59, 7.67, repro,
2006-11-27,2.22, 1.31, -12.00, 2.35, 1.57, 7.56, repro,
2006-11-28,3.40, 1.91, -3.21, 2.30, 1.54, 7.49, repro,
2006-11-29,2.94, 2.03, 0.38, 2.30, 1.54, 7.44, repro,
2006-11-30,3.62, 0.87, -2.68, 2.36, 1.56, 7.64, repro,
2006-12-01,3.49, 1.52, -10.39, 2.33, 1.54, 7.55, repro,
2006-12-02,1.62, 1.18, -14.41, 2.35, 1.58, 7.61, repro,
2006-12-03,4.37, 10.62, -10.17, 2.33, 1.55, 7.54, repro,
2006-12-04,4.03, 4.89, -4.59, 2.33, 1.54, 7.54, repro,
2006-12-05,2.90, 1.26, -4.27, 2.39, 1.58, 7.73, repro,
2006-12-06,-4.86, 8.15, 5.44, 2.43, 1.60, 7.84, repro,
2006-12-07,-1.06, 9.31, 2.19, 2.38, 1.58, 7.71, repro,
2006-12-08,0.32, 5.04, 2.18, 2.37, 1.58, 7.66, repro,
2006-12-09,-1.21, 6.02, 2.12, 2.38, 1.58, 7.70, repro,
2006-12-10,-0.01, 7.17, -1.66, 2.39, 1.60, 7.72, repro,
2006-12-11,-0.19, 3.68, 2.19, 2.35, 1.55, 7.54, repro,
2006-12-12,1.37, 2.44, 8.78, 2.46, 1.67, 8.25, repro,
2006-12-13,2.28, 2.39, 6.16, 2.42, 1.63, 7.81, repro,
2006-12-14,0.01, 4.10, 3.82, 2.34, 1.56, 7.37, repro,
2006-12-15,-0.21, 4.65, 3.00, 2.62, 1.78, 8.69, repro,
2006-12-16,0.28, 4.89, 4.29, 2.42, 1.60, 7.73, repro,
2006-12-17,0.80, 4.35, 1.71, 2.57, 1.77, 8.55, repro,
2006-12-18,-0.65, 3.28, 5.54, 2.49, 1.74, 8.41, repro,
2006-12-19,-0.66, 2.17, 7.10, 2.41, 1.65, 8.02, repro,
2006-12-20,1.09, 3.91, 7.77, 2.41, 1.62, 7.78, repro,
2006-12-21,-0.04, 5.47, 5.82, 2.37, 1.59, 7.67, repro,
2006-12-22,-0.04, 3.42, 6.54, 2.53, 1.70, 8.43, repro,
2006-12-23,-1.10, 1.98, 0.23, 2.49, 1.75, 8.32, repro,
2006-12-24,2.50, 3.97, -6.82, 2.38, 1.62, 7.51, repro,
2006-12-25,1.74, 3.09, -1.48, 2.40, 1.62, 7.71, repro,
2006-12-26,3.12, 5.28, -6.28, 2.56, 1.75, 8.32, repro,
2006-12-27,-3.84, 8.08, -11.80, 2.54, 1.70, 7.90, repro,
2006-12-28,-0.29, 5.30, -15.32, 2.59, 1.77, 8.58, repro,
2006-12-29,1.50, 3.91, 0.11, 2.55, 1.74, 8.19, repro,
2006-12-30,1.00, 3.98, -4.97, 2.53, 1.71, 7.87, repro,
2006-12-31,3.22, 6.24, -2.25, 2.70, 1.83, 8.77, repro,
2007-01-01,0.50, 7.69, -1.77, 2.68, 1.83, 8.77, repro,
2007-01-02,2.95, 5.31, 0.16, 2.58, 1.75, 8.47, repro,
2007-01-03,1.29, 4.37, -2.75, 2.49, 1.68, 7.95, repro,
2007-01-04,0.93, 4.40, -6.14, 2.45, 1.66, 7.64, repro,
2007-01-05,0.95, 5.58, -4.51, 2.56, 1.72, 8.39, repro,
2007-01-06,3.05, 3.99, -10.87, 2.47, 1.67, 7.87, repro,
2007-01-07,1.88, 3.68, -10.72, 2.39, 1.59, 7.63, repro,
2007-01-08,2.68, 4.42, -16.85, 2.46, 1.64, 7.96, repro,
2007-01-09,3.37, 3.90, -21.70, 2.34, 1.58, 7.62, repro,
2007-01-10,4.92, 4.16, -18.25, 2.39, 1.58, 7.57, repro,
2007-01-11,5.29, 2.65, -18.37, 2.42, 1.59, 7.80, repro,
2007-01-12,5.30, 5.10, -14.75, 2.31, 1.55, 7.44, repro,
2007-01-13,4.89, 4.43, -13.29, 2.29, 1.54, 7.29, repro,
2007-01-14,-0.19, 2.52, -8.24, 2.28, 1.53, 7.24, repro,
2007-01-15,1.79, 2.96, -14.32, 2.33, 1.60, 7.40, repro,
2007-01-16,2.62, 3.79, -14.69, 2.36, 1.57, 7.43, repro,
2007-01-17,3.26, 5.46, -8.69, 2.36, 1.58, 7.43, repro,
2007-01-18,1.72, 4.59, -9.69, 2.40, 1.62, 7.55, repro,
2007-01-19,1.94, 3.11, -7.68, 2.33, 1.59, 7.34, repro,
2007-01-20,2.17, 3.54, -5.71, 2.33, 1.59, 7.34, repro,
2007-01-21,2.91, 4.40, -8.51, 2.30, 1.53, 7.21, repro,
2007-01-22,4.71, 3.56, -10.11, 2.32, 1.53, 7.32, repro,
2007-01-23,3.01, 3.57, -14.06, 2.30, 1.53, 7.22, repro,
2007-01-24,3.33, 4.22, -20.19, 2.33, 1.58, 7.30, repro,
2007-01-25,0.68, 6.12, -18.72, 2.44, 1.72, 8.23, repro,
2007-01-26,-0.63, 8.72, -24.16, 2.29, 1.53, 7.20, repro,
2007-01-27,5.72, 4.15, -12.86, 2.34, 1.55, 7.40, repro,
2007-01-28,3.72, 11.08, -21.01, 2.32, 1.54, 7.37, repro,
2007-01-29,2.10, 8.40, -20.66, 2.34, 1.58, 7.54, repro,
2007-01-30,3.44, 6.35, -19.79, 2.33, 1.58, 7.47, repro,
2007-01-31,5.16, 6.46, -14.27, 2.29, 1.54, 7.27, repro,
2007-02-01,8.33, 11.45, -23.07, 2.35, 1.58, 7.40, repro,
2007-02-02,1.17, 11.71, -19.77, 2.38, 1.58, 7.64, repro,
2007-02-03,3.65, 3.79, -11.66, 2.32, 1.57, 7.46, repro,
2007-02-04,3.78, 3.94, -17.92, 2.33, 1.57, 7.54, repro,
2007-02-05,4.19, 4.76, -19.50, 2.38, 1.61, 7.78, repro,
2007-02-06,5.08, 3.44, -17.86, 2.43, 1.65, 8.14, repro,
2007-02-07,2.20, 2.63, -20.62, 2.38, 1.60, 7.60, repro,
2007-02-08,3.70, 4.13, -15.76, 2.39, 1.61, 7.59, repro,
2007-02-09,3.85, 3.62, -14.92, 2.36, 1.60, 7.55, repro,
2007-02-10,3.31, 3.81, -16.91, 2.33, 1.59, 7.73, repro,
2007-02-11,3.16, 4.16, -14.78, 2.32, 1.58, 7.73, repro,
2007-02-12,3.36, 3.52, -15.31, 2.32, 1.58, 7.67, repro,
2007-02-13,3.23, 8.98, -10.79, 2.34, 1.59, 7.74, repro,
2007-02-14,6.56, 5.00, -10.71, 2.34, 1.60, 7.79, repro,
2007-02-15,5.02, 3.99, -5.13, 2.34, 1.58, 7.52, repro,
2007-02-16,5.51, 4.28, -7.58, 2.34, 1.58, 7.60, repro,
2007-02-17,5.11, 5.24, -11.49, 2.39, 1.59, 7.47, repro,
2007-02-18,4.25, 4.60, -5.43, 2.35, 1.61, 7.46, repro,
2007-02-19,4.72, 4.62, -6.68, 2.30, 1.54, 7.27, repro,
2007-02-20,5.12, 3.63, -3.84, 2.33, 1.55, 7.42, repro,
2007-02-21,5.97, 2.76, -12.68, 2.30, 1.53, 7.27, repro,
2007-02-22,5.93, 3.76, -10.56, 2.28, 1.53, 7.22, repro,
2007-02-23,4.36, 4.10, -14.60, 2.37, 1.66, 7.54, repro,
2007-02-24,4.22, 4.07, -9.23, 2.29, 1.54, 7.25, repro,
2007-02-25,4.69, 4.14, -17.53, 2.31, 1.54, 7.34, repro,
2007-02-26,4.00, 5.49, -23.89, 2.32, 1.55, 7.32, repro,
2007-02-27,6.31, 3.86, -7.32, 2.31, 1.54, 7.32, repro,
2007-02-28,6.01, 3.75, -11.41, 2.29, 1.57, 7.40, repro,
2007-03-01,3.51, 3.10, -13.90, 2.40, 1.60, 7.53, repro,
2007-03-02,6.05, 2.99, -18.35, 2.44, 1.63, 7.58, repro,
2007-03-03,5.73, 3.19, -19.53, 2.39, 1.58, 7.40, repro,
2007-03-04,6.20, 4.09, -17.62, 2.36, 1.57, 7.37, repro,
2007-03-05,5.22, 4.21, -14.69, 2.37, 1.58, 7.46, repro,
2007-03-06,4.23, 4.65, -11.20, 2.32, 1.57, 7.32, repro,
2007-03-07,4.38, 4.91, -8.25, 2.34, 1.58, 7.38, repro,
2007-03-08,4.16, 4.44, -8.17, 2.34, 1.56, 7.32, repro,
2007-03-09,3.25, 4.14, -11.83, 2.37, 1.58, 7.47, repro,
2007-03-10,4.33, 4.69, -9.14, 2.41, 1.61, 7.49, repro,
2007-03-11,4.17, 3.27, -13.62, 2.34, 1.60, 7.52, repro,
2007-03-12,3.97, 5.19, -15.10, 2.32, 1.57, 7.36, repro,
2007-03-13,4.46, 4.62, -15.42, 2.33, 1.59, 7.37, repro,
2007-03-14,4.65, 4.02, -15.47, 2.34, 1.57, 7.38, repro,
2007-03-15,5.10, 3.87, -22.92, 2.36, 1.57, 7.47, repro,
2007-03-16,4.57, 4.49, -19.14, 2.35, 1.57, 7.49, repro,
2007-03-17,5.07, 4.71, -11.23, 2.27, 1.55, 7.26, repro,
2007-03-18,5.74, 5.54, -16.78, 2.30, 1.54, 7.29, repro,
2007-03-19,5.48, 5.21, -10.66, 2.29, 1.55, 7.31, repro,
2007-03-20,6.07, 4.99, -11.38, 2.38, 1.61, 7.57, repro,
2007-03-21,2.66, 7.03, -5.76, 2.37, 1.61, 7.58, repro,
2007-03-22,4.03, 5.61, -6.28, 2.32, 1.61, 7.46, repro,
2007-03-23,2.52, 5.63, -5.35, 2.29, 1.56, 7.38, repro,
2007-03-24,4.15, 5.28, -10.99, 2.36, 1.59, 7.66, repro,
2007-03-25,5.37, 5.77, -8.08, 2.32, 1.61, 7.58, repro,
2007-03-26,3.68, 5.93, -14.19, 2.29, 1.56, 7.42, repro,
2007-03-27,3.51, 5.16, -14.53, 2.31, 1.57, 7.53, repro,
2007-03-28,3.71, 6.49, -23.24, 2.32, 1.58, 7.58, repro,
2007-03-29,4.51, 6.13, -25.07, 2.34, 1.63, 7.47, repro,
2007-03-30,4.16, 5.68, -25.37, 2.26, 1.54, 7.27, repro,
2007-03-31,5.54, 5.59, -25.29, 2.30, 1.57, 7.52, repro,
2007-04-01,5.29, 6.21, -26.80, 2.31, 1.56, 7.42, repro,
2007-04-02,4.48, 5.93, -27.82, 2.29, 1.55, 7.34, repro,
2007-04-03,4.49, 5.59, -30.50, 2.28, 1.54, 7.24, repro,
2007-04-04,4.53, 4.32, -28.83, 2.30, 1.57, 7.51, repro,
2007-04-05,2.45, 8.89, -15.65, 2.29, 1.58, 7.46, repro,
2007-04-06,2.93, 6.69, -16.53, 2.32, 1.58, 7.55, repro,
2007-04-07,0.84, 5.51, -9.80, 2.29, 1.56, 7.31, repro,
2007-04-08,-3.18, 6.22, -0.63, 2.30, 1.55, 7.35, repro,